Regional Weather Roundup
Issued by NWS Wakefield, VA

Home | Current Version | Previous Version | Text Only | Print | Product List | Glossary On
Versions: 1 2 3 4 5 6 7 8 9 10 11 12 13 14 15 16 17 18 19 20 21 22 23 24 25 26 27 28 29 30 31 32 33 34 35 36 37 38 39 40 41 42 43 44 45 46 47 48 49 50
000
ASUS41 KAKQ 050314
RWRAKQ

REGIONAL WEATHER ROUNDUP
NATIONAL WEATHER SERVICE WAKEFIELD VA
1100 PM EDT FRI SEP 04 2015

Note: "fair" indicates few or no clouds below 12,000 feet with no
significant weather and/or obstructions to visibility. * = Denotes
station may not report precipitation (e.g., rain,snow,etc.),
thunder or fog.

VAZ042-051-052>054-056-050400-
NORTHERN VIRGINIA

CITY           SKY/WX    TMP DP  RH WIND       PRES   REMARKS
WASH NATIONAL  PTCLDY    79  71  76 E8        30.14R
DULLES         MOCLDY    75  70  84 E7        30.14R
FORT BELVOIR   PTCLDY    77  69  77 VRB5      30.13R
QUANTICO       MOCLDY    76  70  82 NE7       30.14R
FREDERICKSBRG* MOCLDY    76  73  88 E6        30.11R
STAFFORD*      CLOUDY    73  70  91 NE6       30.17R
WARRENTON      MOCLDY    71  71 100 CALM      30.13R FOG
CULPEPER*      CLOUDY    70  69  98 CALM      30.14R FOG
MANASSAS*      MOCLDY    75  72  88 E5        30.13R
LEESBURG*      MOCLDY    77  73  88 S6        30.15R
WINCHESTER     PTCLDY    73  68  83 CALM      30.15R
FRONT ROYAL*   FAIR      72  68  88 CALM      30.13R
LURAY*         FAIR      68  68 100 CALM      30.15R FOG
$$

VAZ048-049-060>072-079>083-050400-
CENTRAL AND SOUTH CENTRAL VIRGINIA

CITY           SKY/WX    TMP DP  RH WIND       PRES   REMARKS
RICHMOND       MOCLDY    75  70  84 NE5       30.11R
CHESTERFIELD*  FAIR      75  61  60 CALM      30.12R
PETERSBURG*    PTCLDY    70  70 100 CALM      30.11R FOG
HANOVER        MOCLDY    70  70 100 CALM      30.13R FOG
TAPPAHANNOCK*  MOCLDY    72  68  88 CALM      30.11S
QUINTON*       FAIR      70  69  98 W5        30.10R
CHARLOTTSVILLE MOCLDY    70  67  90 CALM      30.13R
GORDONSVILLE*  FOG       69  69 100 CALM      30.12S VSB 1/2
ORANGE*        MOCLDY    70  70 100 CALM      30.14S FOG
LOUISA*        FOG       66  66 100 CALM      30.12R VSB 3/4
BUMPASS*       MOCLDY    70  69  98 CALM      30.12R
FARMVILLE*     MOCLDY    70  70  99 N5        30.11R
CREWE*         FAIR     N/A N/A N/A CALM      30.10R
FORT PICKETT*  FAIR      70  69  98 NE5       30.11R
CHASE CITY*    FAIR      73  72  95 CALM      30.10R
CLARKSVILLE*   FAIR      70  68  94 CALM      30.09R
SOUTH HILL*    CLEAR     67  67  99 CALM      30.15R
LAWRENCEVILLE* FAIR      70  70 100 CALM      30.09R
EMPORIA*       PTCLDY    68  68 100 NE3       30.10R FOG
$$

VAZ088>098-050400-
SOUTHEAST VIRGINIA

CITY           SKY/WX    TMP DP  RH WIND       PRES   REMARKS
NORFOLK        PTCLDY    79  70  74 NE9       30.06S
VIRGINIA BEACH PTCLDY    82  70  66 E10       30.05S
NORFOLK NAVAL  PTCLDY    80  70  71 E12       30.08R
WEST POINT*    PTCLDY    75  69  84 NE3       30.11R
SALUDA*        FAIR      78  72  83 E8        30.09R
NEWPORT NEWS   PTCLDY    78  71  79 NE8       30.08R
LANGLEY AFB    MOCLDY    79  72  78 NE15      30.06S
FORT EUSTIS    PTCLDY    78  77  96 NE6       30.06R
WILLIAMSBURG*  PTCLDY    75  73  94 CALM      30.09S
HR EXEC AP*      N/A     75  70  83 NE3       30.09R
FRANKLIN*      PTCLDY    70  69  98 CALM      30.08S FOG
WAKEFIELD      PTCLDY    71  67  87 CALM      30.08S FOG
$$

VAZ020-022-025-037-045-050400-
WEST CENTRAL AND SOUTHWEST VIRGINIA

CITY           SKY/WX    TMP DP  RH WIND       PRES   REMARKS
STAUNTON*      MOCLDY    71  67  88 CALM      30.18S
WAYNESBORO*    CLOUDY    68  67  94 CALM      30.18S
HOT SPRINGS VA MOCLDY    67  67 100 E5        30.26S
LYNCHBURG      MOCLDY    71  67  87 NE6       30.15R
DANVILLE       MOCLDY    71  68  90 E3        30.10R
SOUTH BOSTON*  FAIR      70  68  95 N3        30.10R
MARTINSVILLE   CLOUDY    69  63  79 CALM      30.15R
ROANOKE        MOCLDY    68  67  96 N6        30.17R
BLACKSBURG     MOCLDY    64  64  99 CALM      30.22S
DUBLIN*          N/A     66  65  94 CALM      30.19F
MARION*        CLOUDY    67  62  83 CALM      30.23S
HILLSVILLE*    CLOUDY    63  62  97 NE3       30.19F
RICHLANDS*     FAIR      71  31  23 NE7       30.20S
WISE*          PTCLDY    73  61  64 NE7       30.22R
ABINGDON*      PTCLDY    73  60  63 E7        30.17S
$$

MDZ021>025-VAZ099-100-050400-
SOUTHERN MARYLAND AND THE DELMARVA PENINSULA

CITY           SKY/WX    TMP DP  RH WIND       PRES   REMARKS
PATUXENT RIVER MOCLDY    76  71  85 E10       30.12R
BAY BRIDGE APT   N/A     75  68  78 E8        30.14S
LEONARDTOWN    NOT AVBL
DOVER          CLOUDY    75  71  87 NE14      30.14R
GEORGETOWN     PTCLDY    75  70  84 NE9       30.14R
EASTON         NOT AVBL
CAMBRIDGE      CLEAR     73  68  83 NE3       30.12S
SALISBURY      PTCLDY    73  71  93 NE7       30.11S
OCEAN CITY     PTCLDY    77  71  82 NE9G21    30.11S
WALLOPS ISLAND MOCLDY    77  74  90 NE18      30.10R
ACCOMACK*      MOCLDY    72  57  60 NE5       30.06S
$$

NCZ012>017-030>032-050400-
NORTH CENTRAL AND EASTERN NORTH CAROLINA

CITY           SKY/WX    TMP DP  RH WIND       PRES   REMARKS
ROANOKE RAPIDS FAIR      72  70  94 CALM      30.07S
RALEIGH        MOCLDY    74  69  85 NE3       30.07R
ELIZABETH CITY PTCLDY    76  71  85 NE9       30.05R
AHOSKIE*       PTCLDY    71  69  93 CALM      30.07S FOG
EDENTON*       PTCLDY    71  69  93 N3        30.05R FOG
CURRITUCK*     PTCLDY    79  68  68 NE8G16    30.05F
KILL DEVIL HLS PTCLDY    78  72  80 NE9       30.02S
MANTEO         PTCLDY    78  71  79 E12G18    30.03S
CAPE HATTERAS  PTCLDY    79  72  79 NE7G17    30.00S
TARBORO*       FAIR      71  70  96 NE3       30.07S FOG
GOLDSBORO      PTCLDY    73  69  87 CALM      30.03R
WASHINGTON     PTCLDY    72  70  93 CALM      30.04R
GREENVILLE     PTCLDY    73  72  94 N5        30.06S FOG
NEW BERN       PTCLDY    75  70  84 NE7       30.04R
WILMINGTON     MOCLDY    75  68  78 CALM      30.01R
$$

VAZ048-050400-
ELSEWHERE

CITY           SKY/WX    TMP DP  RH WIND       PRES   REMARKS
HARRISBURG PA  MOCLDY    77  68  73 SE10      30.16R
BALTIMORE      CLOUDY    77  68  73 E15       30.14R
ANNAPOLIS      PTCLDY    77  71  82 E9        30.14R
ANDREWS AFB    PTCLDY    75  70  84 E8        30.13R
PHILADELPHIA   CLOUDY    76  66  71 E13       30.18R
HENDERSON NC   PTCLDY    70  68  92 N5        30.09R FOG
GREENSBORO     MOCLDY    71  66  84 NE5       30.09S
ROCKY MOUNT    PTCLDY    75  71  87 NE7       30.06R
$$

VAZ100-050400-
MARINE

STATION/POSITION TIME  TEMP    WIND        PRES    WAVE   SWELL
                       AIR SEA DIR/SP/G            HT/PER HT/PER
                 (UTC) (F)     (DEG/KT/KT) (MB)    (FT/S) (FT/S)
BRANDYWINE LGT   0200   76 77   80/ 18/ 20 1020.2R
CAPE MAY NJ      0200   76 80   60/  8/ 11 1019.8R
LEWES DE         0200   76 78   80/ 14/ 16 1019.7R
15NM E FENWICK I 0250   78 79   40/ 17/ 19 1019.2S   5/ 6
OCEAN-CITY-INLET 0200   78 79   80/ 11/ 15 1018.5R
GOOSES REEF MD   0300   78 80   90/ 12/ 16 1021.2R
COVE POINT MD    0200   77     110/ 13/ 16 1020.3R
SOLOMONS ISLAND  0200      82                N/A
BISHOPS HEAD MD  0200   77 83   60/ 13/ 16 1018.3R
PINEY POINT MD   0205           90/  9/ 10   N/A
POTOMAC MD       0300   79 81   90/ 16/ 17 1018.2R   2/ 3
CAMBRIDGE MD     0200   77 83   60/ 13/ 17 1018.9R
LEWISETTA VA     0200   80 82   90/ 15/ 17 1018.6R
RAPPAHANNOCK LGT 0200           50/ 13/ 15 1019.0R
STINGRAY PT      0300   80 81   70/ 16/ 17 1019.2R   2/ 3
YORK RVR RNG VA  0200   79      70/ 14/ 16 1017.7R
YORKTOWN VA      0200   80 81   60/ 16/ 18 1018.0R
JAMESTOWN VA     0300   76 83   10/  2/  4   N/A
DOMINION TERM VA 0200   80      80/ 13/ 18 1017.9R
KIPTOPEKE VA     0200      81   70/  7/ 10   N/A
CHES BAY BRIDGE  0200   80 80   40/ 16/ 18 1017.4R
CAPE HENRY VA    0200   79      60/ 15/ 18   N/A
CHESAPEAKE LGHT  0200   79      60/ 18/ 19 1018.4R
WILLOUBY STN VA  0200   80      80/ 15/ 17 1018.8R
CAPE HENRY BUOY  0228      80                N/A     3/ 4
1ST LANDING BUOY 0300      79              1017.5S   3/ 3
CAPE CHARLES BUO 0226      80                N/A     3/ 5   2/11
OFFSHORE WE BUOY 0211      80                N/A     3/ 5   2/10
64NM E OF VA BCH 0250   80 80   60/ 17/ 21 1016.6S   4/ 5   2/12
DUCK PIER NC     0200   80 81   60/ 16/ 19 1016.3R
44100 DUCK FRF   0224      79                N/A     4/ 4
44056 DUCK FRF   0211      80                N/A     3/ 4
OREGON INLET NC  0200   79 83   40/ 14/ 17 1016.4R
HATTERAS NC      0200   81 84   40/ 10/ 15 1015.6R
DIAMOND SHLS NC  0250   78 84   50/ 19/ 23 1015.3F   3/ 4
CAPE LOOKOUT NC  0300   81      40/ 14/ 17 1015.5F
$$


USA.gov is the U.S. government's official web portal to all federal, state and local government web resources and services.